User: anonymous   Login
Location: Unspecified
(0.0000°N, 0.0000°E)
Time: 00:00:42
(UTC+00:00)
Language:

USA 135 - Orbit

View from above orbital plane
View from above orbital plane
View from above satellite
View from above satellite

Ground track
Ground track

The orbit data is extracted from the following two-line orbital elements,

1 25019U 97065A   21027.55938444 -.00000056  00000-0  00000-0 0  9990
2 25019  10.4746  34.6484 0007159 301.7795 240.2972  1.00273216 13231
Epoch (UTC): 27 January 2021 13:25:30
Eccentricity: 0.0007159
inclination: 10.4746°
perigee height: 35755 km
apogee height: 35816 km
right ascension of ascending node: 34.6484°
argument of perigee: 301.7795°
revolutions per day: 1.00273216
mean anomaly at epoch: 240.2972°
orbit number at epoch: 1323

The dashed part of the orbit path shows where the satellite is in the earth's shadow,  

DLR